WA6MHA-11 Weather Reports


Display with metric or nautical units.
time (UTC)temp
F
wind
direction
speed
MPH
gust
MPH
rain 1hr
in
rain 24hr
in
rain mn
in
humidity
%
barometer
mb
20260504041309 59 279 2.0 3.0 0.00 0.00 0.00 48 1015.8
20260504040506 59 240 0.0 2.0 0.00 0.00 0.00 47 1015.6
20260504040107 59 279 1.0 3.0 0.00 0.00 0.00 47 1015.5
20260504035304 60 299 2.0 3.0 0.00 0.00 0.00 47 1015.5
20260504034901 60 283 1.0 0.0 0.00 0.00 0.00 47 1015.5
20260504034058 60 283 3.0 3.0 0.00 0.00 0.00 46 1015.1
20260504033256 60 272 1.0 3.0 0.00 0.00 0.00 46 1015.3
20260504032856 60 288 3.0 4.0 0.00 0.00 0.00 45 1015.2
20260504031654 61 294 2.0 3.0 0.00 0.00 0.00 45 1014.9
20260504031249 61 290 2.0 4.0 0.00 0.00 0.00 45 1014.8
20260504030853 61 274 4.0 4.0 0.00 0.00 0.00 44 1014.9
20260504030447 61 232 2.0 5.0 0.00 0.00 0.00 44 1014.9
20260504024842 62 135 1.0 4.0 0.00 0.00 0.00 43 1014.7
20260504024042 62 90 2.0 3.0 0.00 0.00 0.00 43 1014.7
20260504023237 63 186 2.0 3.0 0.00 0.00 0.00 42 1014.5
20260504022436 63 173 2.0 2.0 0.00 0.00 0.00 41 1014.4
20260504021632 63 173 2.0 3.0 0.00 0.00 0.00 41 1014.4
20260504020434 63 144 1.0 4.0 0.00 0.00 0.00 40 1014.3
20260504020028 63 135 2.0 4.0 0.00 0.00 0.00 40 1014.2
20260504015631 63 177 4.0 4.0 0.00 0.00 0.00 39 1014.3
20260504015629 63 177 4.0 4.0 0.00 0.00 0.00 39 1014.3
20260504014824 63 135 5.0 8.0 0.00 0.00 0.00 39 1014.0
20260504014020 64 135 5.0 8.0 0.00 0.00 0.00 38 1014.1
20260504013622 65 150 4.0 7.0 0.00 0.00 0.00 37 1013.9
20260504013217 66 177 1.0 4.0 0.00 0.00 0.00 37 1014.0
20260504012820 66 187 4.0 4.0 0.00 0.00 0.00 37 1014.0
20260504012414 66 177 4.0 4.0 0.00 0.00 0.00 37 1014.2
20260504011614 65 130 5.0 6.0 0.00 0.00 0.00 36 1014.0
20260504011211 65 139 4.0 8.0 0.00 0.00 0.00 36 1013.9
20260504005605 67 139 5.0 7.0 0.00 0.00 0.00 35 1014.0
20260504005204 67 137 4.0 4.0 0.00 0.00 0.00 35 1013.9
20260504004803 67 162 2.0 6.0 0.00 0.00 0.00 34 1013.9
20260504004402 67 165 3.0 8.0 0.00 0.00 0.00 34 1013.8
20260504004005 67 159 4.0 8.0 0.00 0.00 0.00 34 1013.8
20260504003158 67 130 7.0 7.0 0.00 0.00 0.00 33 1013.8
20260504002757 68 135 7.0 7.0 0.00 0.00 0.00 33 1013.7
20260504002355 68 182 1.0 6.0 0.00 0.00 0.00 33 1013.8
20260504001553 68 135 6.0 6.0 0.00 0.00 0.00 33 1013.8
20260504000757 70 155 5.0 6.0 0.00 0.00 0.00 32 1013.7
20260504000353 70 143 2.0 8.0 0.00 0.00 0.00 32 1013.7
20260503235548 70 135 2.0 5.0 0.00 0.00 0.00 32 1013.7
20260503234346 72 192 1.0 6.0 0.00 0.00 0.00 32 1013.7
20260503233434 71 191 5.0 6.0 0.00 0.00 0.00 32 1013.7
20260503233313 71 191 5.0 6.0 0.00 0.00 0.00 32 1013.7
20260503233140 71 191 5.0 6.0 0.00 0.00 0.00 32 1013.7
20260503232742 71 146 1.0 5.0 0.00 0.00 0.00 33 1013.8
20260503232337 72 135 1.0 6.0 0.00 0.00 0.00 33 1013.8
20260503225929 70 137 8.0 9.0 0.00 0.00 0.00 33 1013.9
20260503225528 71 135 6.0 8.0 0.00 0.00 0.00 33 1014.0
20260503225141 73 139 9.0 10.0 0.00 0.00 0.00 33 1014.0
20260503223120 72 144 5.0 8.0 0.00 0.00 0.00 35 1014.2
20260503222317 73 213 2.0 3.0 0.00 0.00 0.00 35 1014.4
20260503221916 72 182 3.0 3.0 0.00 0.00 0.00 35 1014.4
20260503221557 71 157 1.0 7.0 0.00 0.00 0.00 35 1014.6
20260503221514 71 157 1.0 7.0 0.00 0.00 0.00 35 1014.6
20260503221112 71 186 7.0 7.0 0.00 0.00 0.00 36 1014.5
20260503220711 69 182 7.0 7.0 0.00 0.00 0.00 35 1014.5
20260503220310 70 177 1.0 6.0 0.00 0.00 0.00 36 1014.5
20260503215909 71 135 6.0 6.0 0.00 0.00 0.00 36 1014.7
20260503215107 71 250 3.0 4.0 0.00 0.00 0.00 36 1014.8
20260503214705 70 180 3.0 6.0 0.00 0.00 0.00 36 1014.8
20260503214305 69 199 2.0 5.0 0.00 0.00 0.00 36 1014.7
20260503213903 69 135 6.0 7.0 0.00 0.00 0.00 36 1014.8
20260503213501 69 202 5.0 6.0 0.00 0.00 0.00 36 1014.8
20260503213100 69 182 4.0 5.0 0.00 0.00 0.00 36 1014.8
20260503212659 69 90 1.0 5.0 0.00 0.00 0.00 36 1014.8
20260503212257 68 207 2.0 6.0 0.00 0.00 0.00 36 1014.8
20260503211856 69 277 3.0 4.0 0.00 0.00 0.00 36 1014.8
20260503211455 68 198 3.0 7.0 0.00 0.00 0.00 36 1014.9
20260503211054 69 147 1.0 9.0 0.00 0.00 0.00 37 1014.9
20260503210658 69 184 2.0 4.0 0.00 0.00 0.00 36 1014.9
20260503210251 69 90 1.0 5.0 0.00 0.00 0.00 36 1015.0
20260503205849 68 193 4.0 6.0 0.00 0.00 0.00 36 1014.9
20260503205448 69 186 6.0 6.0 0.00 0.00 0.00 37 1014.9
20260503205047 69 132 2.0 5.0 0.00 0.00 0.00 37 1014.9
20260503204646 69 168 3.0 5.0 0.00 0.00 0.00 37 1014.9
20260503204245 69 58 1.0 6.0 0.00 0.00 0.00 37 1014.9
20260503203442 70 90 0.0 5.0 0.00 0.00 0.00 38 1014.9
20260503203041 70 190 4.0 6.0 0.00 0.00 0.00 38 1014.8
20260503202641 69 160 1.0 5.0 0.00 0.00 0.00 38 1014.9
20260503201838 70 196 3.0 4.0 0.00 0.00 0.00 39 1014.9
20260503201440 69 191 3.0 7.0 0.00 0.00 0.00 39 1015.1
20260503201039 69 135 7.0 7.0 0.00 0.00 0.00 39 1015.0
20260503200633 68 177 2.0 5.0 0.00 0.00 0.00 39 1015.0
20260503200232 68 189 6.0 6.0 0.00 0.00 0.00 39 1015.1
20260503195833 68 186 1.0 5.0 0.00 0.00 0.00 39 1015.2
20260503195430 67 166 3.0 6.0 0.00 0.00 0.00 40 1015.1
20260503195029 67 132 3.0 6.0 0.00 0.00 0.00 40 1015.2
20260503194626 67 180 2.0 8.0 0.00 0.00 0.00 40 1015.2
20260503194226 67 77 1.0 5.0 0.00 0.00 0.00 40 1015.2
20260503193826 67 193 3.0 7.0 0.00 0.00 0.00 40 1015.2
20260503193026 66 123 8.0 9.0 0.00 0.00 0.00 41 1015.1
20260503192622 65 135 3.0 7.0 0.00 0.00 0.00 41 1015.2
20260503191817 66 132 4.0 5.0 0.00 0.00 0.00 41 1015.2
20260503191416 66 163 3.0 9.0 0.00 0.00 0.00 41 1015.2
20260503191015 66 114 1.0 7.0 0.00 0.00 0.00 42 1015.2
20260503190614 66 105 1.0 5.0 0.00 0.00 0.00 42 1015.3
20260503190214 66 123 4.0 9.0 0.00 0.00 0.00 42 1015.3
20260503185414 64 135 7.0 9.0 0.00 0.00 0.00 43 1015.4
20260503185009 65 135 8.0 10.0 0.00 0.00 0.00 43 1015.4
20260503184607 65 210 2.0 6.0 0.00 0.00 0.00 43 1015.3
20260503183805 65 135 6.0 8.0 0.00 0.00 0.00 45 1015.4
20260503183403 67 132 5.0 5.0 0.00 0.00 0.00 45 1015.4
20260503183002 67 191 0.0 5.0 0.00 0.00 0.00 46 1015.4
20260503181759 65 190 5.0 5.0 0.00 0.00 0.00 47 1015.6
20260503181359 64 215 0.0 7.0 0.00 0.00 0.00 48 1015.5
20260503181357 64 215 0.0 7.0 0.00 0.00 0.00 48 1015.5
20260503180955 65 135 3.0 3.0 0.00 0.00 0.00 48 1015.7
20260503180153 63 76 2.0 2.0 0.00 0.00 0.00 48 1015.8
20260503175752 62 40 0.0 1.0 0.00 0.00 0.00 49 1015.9
20260503174549 62 180 1.0 3.0 0.00 0.00 0.00 49 1016.0
20260503174147 62 202 3.0 3.0 0.00 0.00 0.00 50 1016.0
20260503173345 62 177 2.0 4.0 0.00 0.00 0.00 50 1016.0
20260503172543 61 281 4.0 6.0 0.00 0.00 0.00 51 1015.9
20260503171823 61 310 3.0 3.0 0.00 0.00 0.00 51 1015.8
20260503171742 61 310 3.0 3.0 0.00 0.00 0.00 51 1015.8
20260503171338 61 230 1.0 4.0 0.00 0.00 0.00 52 1015.8
20260503170939 61 225 3.0 3.0 0.00 0.00 0.00 52 1015.7
20260503170536 61 230 0.0 3.0 0.00 0.00 0.00 52 1015.7
20260503170135 60 252 2.0 3.0 0.00 0.00 0.00 53 1015.7
20260503160115 58 229 0.0 2.0 0.00 0.00 0.00 55 1015.2
20260503150458 58 163 1.0 3.0 0.00 0.00 0.00 55 1014.8
20260503130419 58 97 0.0 4.0 0.00 0.00 0.00 55 1013.6
20260503110744 58 175 2.0 2.0 0.00 0.00 0.00 55 1013.9
20260503110341 58 180 1.0 3.0 0.00 0.00 0.00 55 1013.9
20260503090301 58 191 1.0 1.0 0.00 0.00 0.00 56 1014.2
20260503081045 58 200 3.0 5.0 0.00 0.00 0.00 56 1014.4
20260503080643 58 173 4.0 6.0 0.00 0.00 0.00 56 1014.4
20260503072625 58 148 1.0 3.0 0.00 0.00 0.00 56 1014.1
20260503072226 58 153 1.0 4.0 0.00 0.00 0.00 56 1014.0
20260503071821 58 166 1.0 2.0 0.00 0.00 0.00 56 1014.0
20260503071420 58 168 2.0 4.0 0.00 0.00 0.00 56 1014.0
20260503071019 58 182 3.0 4.0 0.00 0.00 0.00 56 1013.8
20260503070618 58 186 3.0 7.0 0.00 0.00 0.00 56 1013.7
20260503070217 58 92 6.0 7.0 0.00 0.00 0.00 56 1013.8
20260503053749 58 147 0.0 4.0 0.00 0.00 0.00 56 1014.0
20260503053348 58 137 4.0 7.0 0.00 0.00 0.00 55 1014.0
20260503052947 58 127 5.0 7.0 0.00 0.00 0.00 55 1014.0
20260503052546 58 114 5.0 7.0 0.00 0.00 0.00 55 1013.9
20260503052145 58 135 6.0 7.0 0.00 0.00 0.00 55 1014.1
20260503051744 58 135 4.0 7.0 0.00 0.00 0.00 55 1014.1
20260503051342 58 135 6.0 7.0 0.00 0.00 0.00 55 1014.0
20260503050138 58 157 0.0 6.0 0.00 0.00 0.00 54 1014.0
20260503043731 58 123 4.0 6.0 0.00 0.00 0.00 53 1013.6
20260503042920 58 135 4.0 6.0 0.00 0.00 0.00 53 1013.5
20260503042519 58 123 4.0 6.0 0.00 0.00 0.00 52 1013.4
20260503042118 58 130 6.0 6.0 0.00 0.00 0.00 52 1013.4
20260503041721 58 135 5.0 7.0 0.00 0.00 0.00 52 1013.2